Location: Guferjoch
(46.7462°N, 8.4506°E)
Time: 13:08:51
(UTC+00:00)

Cosmos 1933 Rocket - Pass Details

Date: 14 July 2020
Orbit: 607 x 629 km, 82.5° (Epoch: 06 August)

Event Time Altitude Azimuth Distance (km) Brightness Sun altitude
Exits shadow 00:23:24 52° 159° (SSE) 761 3.6 -20.6°
Maximum altitude 00:24:20 70° 97° (E) 649 3.6 -20.6°
Drops below altitude 10° 00:28:40 10° 13° (NNE) 1,972 7.3 -20.4°
Sets 00:30:54 0° 12° (NNE) 2,883 8.6 -20.3°
